QZS-1 (MICHIBIKI-1)

Last updated on Sept. 18, 2020, 5:42 a.m. UTC

1 37158U 10045A   20261.53495424 -.00000169  00000-0  00000+0 0  9997
2 37158  41.7015 142.2969 0763340 271.0291 271.7213  1.00246954 36678
UTC
Height (km)
Latitude
Longitude
Inclination
Orbital Period
UTC large
Height (km)
Speed (km/s)
/
Latitude / Longitude
Inclination (degrees)
Orbital Period (minutes)
Azimuth
Elevation
Range (km)
Doppler Factor
iOS Compass Heading
iOS Angle

Next 30 passes for location: Hong Kong

Rise time Rise Azimuth (degrees) Set time Set Azimuth (degrees) Duration Max altitude (degrees)

No matching passes for this satellites